KC8C Weather Reports


Display with metric or nautical units.
time (UTC)temp
F
wind
direction
speed
MPH
gust
MPH
rain 1hr
in
rain 24hr
in
rain mn
in
humidity
%
barometer
mb
20260506121515 43 26 0.0 6.0 0.00 0.03 0.00 65 1012.1
20260506121015 44 10 0.0 4.0 0.00 0.03 0.00 64 1012.0
20260506120515 44 10 0.0 5.0 0.00 0.03 0.00 65 1012.0
20260506120016 44 56 0.0 5.0 0.00 0.03 0.00 66 1011.8
20260506115514 44 44 1.0 2.0 0.00 0.03 0.00 67 1011.5
20260506115013 43 50 0.0 3.0 0.00 0.03 0.00 65 1011.4
20260506114513 43 57 0.0 3.0 0.00 0.03 0.00 66 1011.5
20260506114011 43 61 0.0 3.0 0.00 0.03 0.00 66 1011.5
20260506113510 43 63 0.0 2.0 0.00 0.03 0.00 66 1011.4
20260506113009 43 360 0.0 1.0 0.00 0.03 0.00 66 1011.3
20260506112511 43 360 0.0 2.0 0.00 0.03 0.00 66 1011.3
20260506112008 43 360 0.0 2.0 0.00 0.03 0.00 66 1011.3
20260506111508 43 360 0.0 2.0 0.00 0.03 0.00 65 1011.2
20260506111008 43 360 0.0 4.0 0.00 0.03 0.00 65 1011.0
20260506110509 44 360 0.0 4.0 0.00 0.03 0.00 64 1011.0
20260506110006 44 360 0.0 1.0 0.00 0.03 0.00 64 1011.0
20260506105506 44 360 0.0 2.0 0.00 0.03 0.00 63 1010.8
20260506105007 44 360 0.0 2.0 0.00 0.03 0.00 64 1010.7
20260506104503 44 360 0.0 2.0 0.00 0.03 0.00 64 1010.6
20260506104002 44 360 0.0 3.0 0.00 0.03 0.00 65 1010.7
20260506103503 44 360 0.0 3.0 0.00 0.03 0.00 64 1010.7
20260506103001 44 360 0.0 3.0 0.00 0.03 0.00 64 1010.6
20260506102501 44 69 1.0 3.0 0.00 0.03 0.00 63 1010.5
20260506102102 44 360 0.0 2.0 0.00 0.03 0.00 64 1010.6
20260506101606 45 360 0.0 2.0 0.00 0.03 0.00 65 1010.4
20260506101059 45 69 0.0 2.0 0.00 0.03 0.00 66 1010.3
20260506100558 45 360 0.0 2.0 0.00 0.03 0.00 65 1010.3
20260506100058 45 360 0.0 3.0 0.00 0.03 0.00 65 1010.2
20260506095559 45 360 0.0 4.0 0.00 0.03 0.00 65 1010.1
20260506095057 45 360 1.0 4.0 0.00 0.03 0.00 65 1010.1
20260506094621 45 360 0.0 5.0 0.00 0.03 0.00 65 1010.0
20260506094054 46 71 1.0 7.0 0.00 0.03 0.00 65 1010.0
20260506093553 46 68 1.0 7.0 0.00 0.03 0.00 66 1010.0
20260506093056 46 19 0.0 4.0 0.00 0.03 0.00 67 1010.0
20260506092552 46 9 0.0 5.0 0.00 0.03 0.00 67 1010.1
20260506092051 46 52 0.0 6.0 0.00 0.03 0.00 66 1009.9
20260506091550 47 341 0.0 6.0 0.00 0.03 0.00 66 1009.9
20260506091049 47 64 0.0 4.0 0.00 0.03 0.00 66 1009.7
20260506090548 47 64 0.0 10.0 0.00 0.03 0.00 65 1009.6
20260506090048 47 62 2.0 10.0 0.00 0.03 0.00 65 1009.5
20260506085548 47 309 0.0 2.0 0.00 0.03 0.00 64 1009.8
20260506085047 47 309 0.0 1.0 0.00 0.03 0.00 64 1009.7
20260506084548 47 309 0.0 1.0 0.00 0.03 0.00 63 1009.6
20260506084048 47 309 0.0 2.0 0.00 0.03 0.00 64 1009.6
20260506083545 47 309 0.0 2.0 0.00 0.03 0.00 63 1009.5
20260506083045 47 309 0.0 4.0 0.00 0.03 0.00 64 1009.6
20260506082548 47 309 0.0 4.0 0.00 0.03 0.00 63 1009.5
20260506082043 47 308 0.0 2.0 0.00 0.03 0.00 62 1009.4
20260506081543 48 308 0.0 3.0 0.00 0.03 0.00 62 1009.6
20260506081043 48 308 0.0 3.0 0.00 0.03 0.00 61 1009.6
20260506080542 48 307 0.0 3.0 0.00 0.03 0.00 61 1009.7
20260506073043 48 306 0.0 3.0 0.00 0.03 0.00 61 1009.3
20260506072539 48 306 0.0 2.0 0.00 0.03 0.00 61 1009.3
20260506072038 48 306 0.0 2.0 0.00 0.03 0.00 60 1009.2
20260506071537 48 306 0.0 5.0 0.00 0.03 0.00 59 1009.3
20260506071036 48 306 1.0 5.0 0.00 0.03 0.00 58 1009.5
20260506070536 48 288 1.0 6.0 0.00 0.03 0.00 59 1009.3
20260506062031 49 290 1.0 7.0 0.00 0.03 0.00 56 1009.6
20260506061535 49 335 1.0 6.0 0.00 0.03 0.00 56 1009.5
20260506061032 49 296 1.0 9.0 0.00 0.03 0.00 55 1009.6
20260506060529 49 292 3.0 9.0 0.00 0.03 0.00 55 1009.5
20260506051025 50 275 1.0 6.0 0.00 0.04 0.00 56 1009.3
20260506050528 50 271 2.0 6.0 0.00 0.04 0.00 55 1009.4
20260506045023 50 288 2.0 5.0 0.00 0.05 0.00 55 1009.2
20260506044529 50 286 1.0 5.0 0.00 0.05 0.00 55 1009.2
20260506044021 50 297 1.0 5.0 0.00 0.05 0.00 55 1009.2
20260506043523 50 298 2.0 5.0 0.00 0.05 0.00 55 1009.2
20260506043021 50 279 1.0 6.0 0.00 0.05 0.00 55 1009.1
20260506042521 50 275 1.0 6.0 0.00 0.05 0.00 54 1009.1
20260506042023 50 279 1.0 5.0 0.00 0.05 0.00 54 1009.1
20260506041521 50 282 3.0 7.0 0.00 0.05 0.00 54 1009.1
20260506041019 50 287 1.0 4.0 0.00 0.05 0.00 54 1009.2
20260506040519 50 286 2.0 7.0 0.00 0.05 0.00 54 1009.1
20260506040042 50 289 2.0 7.0 0.00 0.05 0.00 53 1009.2
20260506035517 50 279 2.0 6.0 0.00 0.05 0.05 53 1009.3
20260506035017 50 287 2.0 5.0 0.00 0.05 0.05 53 1009.4
20260506034516 50 291 2.0 4.0 0.00 0.05 0.05 53 1009.3
20260506034015 50 284 2.0 4.0 0.00 0.05 0.05 53 1009.4
20260506033515 50 296 2.0 3.0 0.00 0.05 0.05 53 1009.4
20260506033015 50 297 1.0 3.0 0.00 0.05 0.05 53 1009.4
20260506032515 51 297 1.0 3.0 0.00 0.05 0.05 53 1009.4
20260506032016 51 297 1.0 5.0 0.00 0.05 0.05 52 1009.4
20260506031530 51 301 2.0 5.0 0.00 0.05 0.05 52 1009.3
20260506031018 51 284 2.0 6.0 0.00 0.05 0.05 52 1009.3
20260506030513 51 283 0.0 4.0 0.00 0.05 0.05 52 1009.2
20260506030013 51 282 1.0 4.0 0.00 0.05 0.05 51 1009.3
20260506025513 51 283 2.0 4.0 0.00 0.05 0.05 50 1009.4
20260506025014 51 282 1.0 4.0 0.00 0.05 0.05 51 1009.3
20260506024518 51 280 2.0 6.0 0.00 0.05 0.05 50 1009.5
20260506024012 51 269 3.0 6.0 0.00 0.05 0.05 50 1009.5
20260506023512 51 289 0.0 5.0 0.00 0.05 0.05 50 1009.3
20260506023012 51 286 1.0 5.0 0.00 0.05 0.05 50 1009.3
20260506022511 51 300 2.0 8.0 0.00 0.05 0.05 49 1009.3
20260506022010 51 284 2.0 7.0 0.00 0.05 0.05 49 1009.5
20260506021512 51 294 1.0 8.0 0.00 0.05 0.05 50 1009.6
20260506021012 51 277 3.0 8.0 0.00 0.05 0.05 50 1009.5
20260506020512 51 279 3.0 8.0 0.00 0.05 0.05 50 1009.4
20260506020009 52 277 2.0 6.0 0.00 0.05 0.05 52 1009.1
20260506015508 52 280 1.0 4.0 0.00 0.05 0.05 52 1009.1
20260506015007 52 280 1.0 2.0 0.00 0.05 0.05 52 1009.1
20260506014511 52 280 0.0 5.0 0.00 0.05 0.05 54 1008.9
20260506014005 52 280 2.0 5.0 0.00 0.05 0.05 50 1008.9
20260506013509 52 281 2.0 4.0 0.00 0.05 0.05 50 1009.0
20260506013005 52 281 1.0 4.0 0.00 0.05 0.05 50 1008.9
20260506012504 52 281 1.0 5.0 0.00 0.05 0.05 50 1008.7
20260506012005 52 271 1.0 7.0 0.00 0.05 0.05 50 1008.7
20260506011504 52 280 3.0 7.0 0.00 0.05 0.05 50 1008.7
20260506011005 52 278 2.0 5.0 0.00 0.05 0.05 51 1008.7
20260506010504 52 261 1.0 6.0 0.00 0.05 0.05 52 1008.8
20260506010008 52 261 2.0 6.0 0.00 0.05 0.05 51 1008.7
20260506005503 52 283 2.0 5.0 0.00 0.10 0.05 51 1008.7
20260506005004 53 281 2.0 5.0 0.00 0.10 0.05 51 1008.8
20260506004505 53 280 1.0 7.0 0.00 0.10 0.05 51 1008.7
20260506004004 53 277 2.0 7.0 0.00 0.10 0.05 51 1008.7
20260506003503 53 288 3.0 7.0 0.00 0.10 0.05 51 1008.7
20260506003101 53 259 2.0 6.0 0.00 0.10 0.05 53 1008.5
20260506002600 53 287 1.0 5.0 0.00 0.10 0.05 55 1008.5
20260506002100 53 287 2.0 7.0 0.00 0.10 0.05 54 1008.6
20260506001559 53 242 3.0 6.0 0.00 0.10 0.05 55 1008.5
20260506001059 53 296 1.0 9.0 0.00 0.10 0.05 55 1008.4
20260506000600 53 292 1.0 9.0 0.00 0.10 0.05 57 1008.4
20260505235559 54 284 2.0 5.0 0.00 0.11 0.05 56 1008.2
20260505235058 54 285 2.0 8.0 0.00 0.11 0.05 56 1008.0
20260505234604 54 275 3.0 8.0 0.00 0.11 0.05 56 1007.9
20260505234056 54 269 3.0 7.0 0.00 0.11 0.05 58 1007.8
20260505233556 54 273 3.0 7.0 0.00 0.11 0.05 58 1007.9
20260505233109 54 260 2.0 8.0 0.00 0.11 0.05 59 1007.7
20260505232555 54 274 3.0 8.0 0.00 0.11 0.05 60 1007.8
20260505232058 54 283 3.0 5.0 0.00 0.11 0.05 60 1007.8
20260505231602 54 269 2.0 6.0 0.00 0.11 0.05 61 1007.8
20260505231059 54 227 1.0 5.0 0.00 0.11 0.05 62 1007.8
20260505230554 54 298 2.0 8.0 0.00 0.11 0.05 62 1007.8
20260505230055 54 311 3.0 8.0 0.00 0.11 0.05 61 1007.8
20260505225554 55 285 2.0 8.0 0.00 0.11 0.05 61 1008.0
20260505225054 55 280 3.0 8.0 0.00 0.11 0.05 62 1007.9
20260505224553 55 273 4.0 9.0 0.00 0.11 0.05 62 1008.0
20260505224053 55 279 3.0 9.0 0.00 0.11 0.05 62 1008.0
20260505223552 55 284 2.0 9.0 0.00 0.11 0.05 62 1008.0
20260505223055 55 290 4.0 9.0 0.00 0.11 0.05 62 1008.0
20260505222552 55 261 2.0 8.0 0.00 0.11 0.05 63 1008.0
20260505222051 55 265 3.0 7.0 0.00 0.11 0.05 63 1007.9
20260505221552 55 260 3.0 8.0 0.00 0.11 0.05 63 1008.0
20260505221052 55 267 4.0 8.0 0.00 0.11 0.05 64 1007.8
20260505220552 55 258 3.0 6.0 0.00 0.11 0.05 66 1007.9
20260505220051 55 304 2.0 6.0 0.00 0.11 0.05 68 1008.1
20260505215550 55 232 2.0 10.0 0.00 0.11 0.05 68 1008.0
20260505215050 55 264 5.0 10.0 0.00 0.11 0.05 68 1008.0
20260505214554 55 267 1.0 9.0 0.00 0.11 0.05 69 1008.0
20260505214049 55 242 2.0 7.0 0.00 0.11 0.05 70 1007.8
20260505213550 54 248 2.0 5.0 0.00 0.11 0.05 71 1007.8
20260505213049 54 240 2.0 5.0 0.00 0.11 0.05 71 1007.7
20260505212549 54 247 2.0 6.0 0.00 0.11 0.05 71 1007.7
20260505212049 54 227 2.0 9.0 0.00 0.11 0.05 72 1007.7
20260505211556 54 243 4.0 9.0 0.00 0.11 0.05 71 1007.8
20260505211051 54 232 2.0 9.0 0.00 0.11 0.05 72 1007.8
20260505210548 54 180 2.0 9.0 0.00 0.11 0.05 73 1007.8
20260505210048 54 171 2.0 7.0 0.00 0.11 0.05 73 1007.9
20260505205548 54 240 2.0 7.0 0.00 0.11 0.05 73 1007.9
20260505205051 53 221 3.0 7.0 0.00 0.11 0.05 73 1007.9
20260505204548 53 225 1.0 8.0 0.00 0.11 0.05 74 1008.0
20260505204048 53 217 3.0 8.0 0.00 0.11 0.05 73 1008.1
20260505203550 53 240 2.0 9.0 0.00 0.11 0.05 73 1007.9
20260505203049 53 233 2.0 7.0 0.00 0.11 0.05 74 1008.0
20260505202549 53 227 3.0 8.0 0.00 0.11 0.05 74 1007.9
20260505202049 53 183 2.0 8.0 0.00 0.11 0.05 74 1008.0
20260505201551 53 233 1.0 5.0 0.00 0.11 0.05 74 1007.9
20260505201046 53 244 3.0 7.0 0.00 0.11 0.05 74 1007.9
20260505200547 53 225 4.0 7.0 0.00 0.11 0.05 74 1008.0
20260505200049 53 232 4.0 9.0 0.00 0.11 0.05 75 1008.0
20260505195546 52 185 3.0 9.0 0.00 0.11 0.05 75 1008.0
20260505195046 52 173 3.0 9.0 0.00 0.11 0.05 75 1007.9
20260505194556 52 173 4.0 9.0 0.00 0.11 0.05 75 1008.0
20260505194045 52 189 4.0 10.0 0.00 0.11 0.05 76 1008.1
20260505193547 52 182 3.0 11.0 0.00 0.11 0.05 76 1008.2
20260505193044 52 188 3.0 9.0 0.00 0.11 0.05 76 1008.1
20260505192544 52 185 4.0 7.0 0.00 0.11 0.05 76 1008.2
20260505192044 52 161 2.0 8.0 0.00 0.11 0.05 77 1008.2
20260505191544 52 207 2.0 9.0 0.00 0.11 0.05 77 1008.2
20260505191042 52 188 4.0 10.0 0.00 0.11 0.05 77 1008.3
20260505190541 52 173 3.0 10.0 0.00 0.11 0.05 77 1008.3
20260505190044 53 202 4.0 8.0 0.00 0.11 0.05 77 1008.2
20260505185540 53 180 3.0 8.0 0.00 0.11 0.05 77 1008.1
20260505185040 53 177 3.0 10.0 0.00 0.11 0.05 77 1008.0
20260505184540 53 232 3.0 10.0 0.00 0.11 0.05 78 1008.0
20260505184039 53 186 4.0 7.0 0.00 0.11 0.05 78 1007.9
20260505183540 53 186 2.0 9.0 0.00 0.11 0.05 79 1007.8
20260505183040 53 222 5.0 9.0 0.00 0.11 0.05 78 1007.8
20260505182537 53 165 5.0 9.0 0.00 0.11 0.05 79 1007.7
20260505182039 53 238 4.0 9.0 0.00 0.11 0.05 79 1007.5
20260505181537 53 242 2.0 9.0 0.00 0.11 0.05 79 1007.5
20260505181036 53 155 3.0 9.0 0.00 0.11 0.05 78 1007.5
20260505180538 53 218 4.0 9.0 0.00 0.11 0.05 78 1007.4
20260505180039 53 178 3.0 7.0 0.00 0.11 0.05 80 1007.3
20260505175534 53 165 3.0 7.0 0.01 0.11 0.05 80 1007.3
20260505175035 53 190 3.0 7.0 0.01 0.11 0.05 80 1007.1
20260505174540 53 233 3.0 9.0 0.01 0.11 0.05 79 1007.2
20260505174034 53 182 3.0 9.0 0.01 0.11 0.05 78 1007.1
20260505173534 53 200 2.0 9.0 0.02 0.11 0.05 80 1007.0
20260505173035 53 360 5.0 10.0 0.02 0.11 0.05 80 1006.9
20260505172532 53 193 3.0 7.0 0.02 0.11 0.05 82 1006.9
20260505172031 52 200 3.0 5.0 0.03 0.11 0.05 81 1007.0
20260505171534 52 206 1.0 8.0 0.03 0.11 0.05 81 1007.2
20260505171034 52 195 3.0 8.0 0.03 0.11 0.05 81 1007.2
20260505170529 52 192 2.0 6.0 0.03 0.11 0.05 79 1007.2
20260505170028 52 229 3.0 7.0 0.02 0.10 0.04 79 1007.2
20260505165528 52 179 3.0 8.0 0.02 0.10 0.04 77 1007.4
20260505165028 52 260 2.0 9.0 0.02 0.10 0.04 78 1007.5
20260505164528 52 261 4.0 9.0 0.02 0.10 0.04 77 1007.5
20260505164030 52 235 2.0 9.0 0.01 0.09 0.03 76 1007.6
20260505163528 53 262 4.0 10.0 0.01 0.09 0.03 74 1007.5
20260505163024 53 277 3.0 11.0 0.01 0.09 0.03 72 1007.3
20260505162523 53 238 4.0 12.0 0.01 0.09 0.03 71 1007.4
20260505162022 54 263 4.0 12.0 0.00 0.08 0.02 70 1007.4
20260505161520 54 282 6.0 12.0 0.00 0.08 0.02 70 1007.5
20260505161022 55 319 3.0 12.0 0.00 0.08 0.02 69 1007.5
20260505160518 56 319 3.0 12.0 0.00 0.08 0.02 68 1007.3
20260505153012 57 294 2.0 5.0 0.00 0.08 0.02 64 1006.6
20260505152511 57 255 1.0 7.0 0.00 0.08 0.02 64 1006.4
20260505152017 57 271 1.0 8.0 0.00 0.08 0.02 65 1006.4
20260505151510 57 309 3.0 8.0 0.00 0.08 0.02 64 1006.4
20260505151010 57 279 1.0 4.0 0.00 0.08 0.02 64 1006.1
20260505150511 58 297 0.0 7.0 0.00 0.08 0.02 66 1006.1
20260505140505 57 321 2.0 10.0 0.00 0.08 0.02 68 1005.8
20260505130111 59 268 3.0 11.0 0.00 0.08 0.02 65 1003.9
20260505124601 58 269 2.0 10.0 0.00 0.08 0.02 68 1003.8
20260505124054 58 292 3.0 7.0 0.00 0.08 0.02 69 1004.1
20260505123553 58 265 3.0 10.0 0.00 0.08 0.02 70 1004.0
20260505123054 58 254 5.0 10.0 0.00 0.08 0.02 70 1004.0
20260505122553 58 240 3.0 7.0 0.00 0.08 0.02 72 1004.0
20260505122053 57 291 2.0 10.0 0.00 0.08 0.02 73 1004.1